This is the latest recevied weather packets stored in our database for station/object F1AGU-13. If no packets are shown the sender has not sent any weather packets the latest 10 day(s).
| Time | Temp. | Humidity | Pressure | Rain* | Wind** | Luminosity | Snow |
|---|---|---|---|---|---|---|---|
| 1777725316 | 19.44° C | 58% | 1022.3 hPa | 0 mm | - | - | - |
| 1777724716 | 19.44° C | 59% | 1022.4 hPa | 0 mm | - | - | - |
| 1777724117 | 19.44° C | 56% | 1022.5 hPa | 0 mm | - | - | - |
| 1777723516 | 19.44° C | 60% | 1022.5 hPa | 0 mm | - | - | - |
| 1777722916 | 18.89° C | 58% | 1022.6 hPa | 0 mm | - | - | - |
| 1777722317 | 18.89° C | 63% | 1022.7 hPa | 0 mm | - | - | - |
| 1777722316 | 18.89° C | 63% | 1022.7 hPa | 0 mm | - | - | - |
| 1777721716 | 19.44° C | 58% | 1022.6 hPa | 0 mm | - | - | - |
| 1777721116 | 18.89° C | 64% | 1022.8 hPa | 0 mm | - | - | - |
| 1777720516 | 18.89° C | 61% | 1023 hPa | 0 mm | - | - | - |
| 1777719916 | 18.89° C | 62% | 1023.2 hPa | 0 mm | - | - | - |
| 1777719916 | 18.89° C | 62% | 1023.2 hPa | 0 mm | - | - | - |
| 1777719316 | 18.89° C | 65% | 1023.2 hPa | 0 mm | - | - | - |
| 1777718716 | 18.89° C | 65% | 1023.2 hPa | 0 mm | - | - | - |
| 1777718116 | 18.89° C | 65% | 1023.3 hPa | 0 mm | - | - | - |
| 1777717516 | 18.33° C | 64% | 1023.4 hPa | 0 mm | - | - | - |
| 1777716916 | 18.33° C | 62% | 1023.4 hPa | 0 mm | - | - | - |
| 1777716316 | 18.33° C | 58% | 1023.6 hPa | 0 mm | - | - | - |
| 1777715716 | 17.78° C | 63% | 1023.8 hPa | 0 mm | - | - | - |
| 1777715116 | 17.78° C | 63% | 1023.9 hPa | 0 mm | - | - | - |
| 1777714516 | 17.78° C | 64% | 1024 hPa | 0 mm | - | - | - |
| 1777713916 | 17.78° C | 55% | 1024.1 hPa | 0 mm | - | - | - |
| 1777713316 | 17.78° C | 59% | 1024.1 hPa | 0 mm | - | - | - |
| 1777712716 | 17.22° C | 62% | 1024.1 hPa | 0 mm | - | - | - |
| 1777712115 | 17.22° C | 60% | 1024.1 hPa | 0 mm | - | - | - |
* Rain latest hour (hover to see other rain measurements)
** Current wind speed in m/s (hover to see current wind gust speed)